[[{"header":{"parameterUnit":"m.s-1","parameterCategory":1,"la1":30.2991,"la2":30.254,"lo1":-89.0895,"lo2":-89.0444,"dy":0.0017,"dx":0.0017,"nx":28,"ny":28,"refTime":"2024-06-07T09:00:00:Z","depth":0,"parameterNumber":2,"parameterNumberName":"U-component_of_WINDS"},"data":[0,0,0,0,0,0,0,0,0,0,0,0,0,0,0,0,0,0,0,0,0,0,0,0,0,0,0,0,0,0,0,0,0,0,0,0,0,0,0,0,0,0,0,0,0,0,0,0,0,0,0,0,0,0,0,0,0,0,3.3477,3.3477,0,3.3549,3.3549,3.355,3.3497,3.3494,3.3492,3.349,3.3561,3.3565,3.3569,0,0,0,0,0,0,0,0,0,0,0,0,0,3.3288,3.3292,3.3477,3.3478,3.3478,3.3548,3.3549,3.355,3.3497,3.3494,3.3491,3.3489,3.3559,3.3564,3.3569,0,0,0,0,0,0,0,0,0,0,0,0,0,3.3366,3.3293,3.3476,3.346,3.346,3.3548,3.3549,3.3551,3.3498,3.3494,3.3491,3.3487,3.3558,3.3564,3.357,3.3677,0,0,3.3588,3.3591,0,0,0,0,0,0,0,0,3.3362,3.3373,3.3462,3.3462,3.3461,3.351,3.3509,3.3593,3.3498,3.3483,3.349,3.3486,3.3547,3.3553,3.3574,3.3681,3.3684,3.3589,3.3593,3.3595,3.3597,0,0,0,0,0,0,0,3.3356,3.337,3.3505,3.3463,3.3463,3.3448,3.3455,3.3525,3.3533,3.3484,3.348,3.349,3.3546,3.3569,3.3576,3.3685,3.3589,3.3594,3.3598,3.36,3.3879,3.3882,0,0,0,0,0,0,3.3353,3.3365,3.3503,3.3507,3.3402,3.3454,3.3462,3.3498,3.3533,3.3535,3.3493,3.3487,3.356,3.3569,3.3578,3.3703,3.3595,3.3601,3.3604,3.3875,3.3879,3.3883,0,0,0,0,0,0,3.3349,3.3366,3.35,3.3435,3.3451,3.3461,3.3502,3.3501,3.3524,3.3539,3.354,3.3515,3.3558,3.3569,3.3652,3.3705,3.3604,3.3609,3.387,3.3876,3.3881,3.3957,0,0,0,0,0,0,3.3344,3.3365,3.3407,3.3437,3.3455,3.3575,3.3505,3.3505,3.3535,3.3528,3.356,3.3562,3.3556,3.3643,3.3658,3.3712,3.3614,3.3866,3.3873,3.388,3.3949,3.3964,3.3977,0,0,0,0,0,3.3338,3.3426,3.341,3.3426,3.3508,3.3578,3.3588,3.358,3.354,3.3581,3.359,3.3561,3.3697,3.3652,3.3669,3.3725,3.3862,3.3871,3.3879,3.3943,3.3961,3.3976,0,0,0,0,0,0,3.3402,3.3429,3.3412,3.3513,3.3543,3.3569,3.3621,3.36,3.3642,3.3633,3.362,3.3628,3.3714,3.3728,3.3678,3.3828,3.3773,3.3785,3.3816,3.3833,3.3847,3.3841,3.3619,0,0,0,0,0,3.3428,3.3483,3.3504,3.3591,3.3607,3.3612,3.3642,3.3632,3.3663,3.3676,3.3691,3.3721,3.377,3.3803,3.3849,3.3952,3.3956,3.3998,3.4011,3.4022,3.4032,3.4083,3.4101,3.3911,3.3911,3.3911,0,0,3.3482,3.3504,3.354,3.3604,3.3627,3.3682,3.3623,3.3685,3.3725,3.3685,3.3763,3.3776,3.3808,3.39,3.3942,3.3914,3.4086,3.4033,3.4042,3.4046,3.4094,3.4112,3.4128,3.3917,3.3916,3.3915,0,0,3.3608,3.3632,3.3705,3.3729,3.3764,3.3766,3.3783,3.3812,3.3818,3.3897,3.3867,3.3914,3.4,3.4023,3.4046,3.4179,3.4152,3.4194,3.4264,3.4315,3.4329,3.4343,3.4387,3.4403,3.4204,3.4205,3.4205,0,3.3671,3.3755,3.3745,3.3809,3.3837,3.3803,3.3875,3.3898,3.3946,3.3965,3.3934,3.4039,3.4059,3.4154,3.4186,3.4207,3.4224,3.419,3.4328,3.4341,3.4354,3.4395,3.4412,3.4209,3.4209,3.4208,3.4208,0,3.3828,3.3886,3.3941,3.3988,3.4022,3.409,3.4088,3.4124,3.4111,3.4116,3.4194,3.4217,3.4265,3.4288,3.4277,3.4381,3.4362,3.4331,3.4274,3.4376,3.4415,3.4431,3.4216,3.4214,3.4213,3.4212,0,0,3.3997,3.4036,3.4056,3.4075,3.4111,3.4155,3.422,3.4268,3.4297,3.4331,3.4383,3.4455,3.4425,3.4451,3.4442,3.4486,3.4585,3.4448,3.4449,3.447,3.4697,3.4719,3.4738,3.4569,3.4572,3.4574,3.4693,0,3.4122,3.4236,3.4228,3.4335,3.4386,3.4354,3.441,3.4436,3.4442,3.4485,3.4491,3.4541,3.45,3.4514,3.4557,3.4564,3.463,3.4556,3.4614,3.4616,3.4604,3.4759,3.4782,3.4894,3.4709,3.4711,3.4713,0,3.4284,3.4323,3.4434,3.4459,3.448,3.4531,3.4572,3.4615,3.4643,3.4644,3.4672,3.4655,3.4717,3.4661,3.4746,3.4695,3.4719,3.4726,3.473,3.4733,3.4669,3.4763,3.4929,3.4945,3.4738,3.4736,3.4734,0,3.4392,3.4472,3.4548,3.4566,3.4598,3.4633,3.4648,3.4673,3.4701,3.4737,3.4754,3.4797,3.482,3.4853,3.4846,3.4807,3.4931,3.4875,3.4931,3.4931,3.4957,3.4955,3.5127,3.4977,3.4977,3.4977,3.4976,0,3.4531,3.4599,3.4596,3.4643,3.4718,3.4707,3.4781,3.4791,3.4813,3.4859,3.4835,3.4878,3.4869,3.4911,3.4907,3.4975,3.4987,3.4987,3.4984,3.4988,3.4987,3.5001,3.4992,3.4981,3.498,3.4979,3.4979,0,3.4663,3.4664,3.4744,3.4767,3.4774,3.4828,3.4846,3.4889,3.4892,3.4951,3.4964,3.4968,3.5017,3.5014,3.507,3.5066,3.515,3.514,3.514,3.5137,3.5191,3.5185,3.5376,3.5398,3.5237,3.5239,3.524,0,3.475,3.4802,3.483,3.4859,3.4876,3.4924,3.4952,3.4943,3.4973,3.5008,3.5046,3.5092,3.5128,3.5207,3.5215,3.5256,3.5244,3.5308,3.525,3.5251,3.5241,3.5237,3.524,3.5319,3.5321,3.5322,3.5324,0,3.4904,3.4901,3.4944,3.4985,3.502,3.5052,3.5082,3.5107,3.5101,3.5135,3.5185,3.5213,3.5269,3.5314,3.5353,3.5366,3.5343,3.5342,3.5356,3.5359,3.5355,3.5354,3.5168,3.5337,3.5336,3.5335,3.5334,3.5333,3.5014,3.5057,3.5082,3.5129,3.515,3.5178,3.5218,3.5226,3.5267,3.5312,3.5304,3.5359,3.5383,3.5433,3.5449,3.549,3.5467,3.5489,3.5494,3.5499,3.5503,3.5351,3.5498,3.5498,3.5497,3.5497,3.5497,0,3.5163,3.5177,3.5221,3.5262,3.5298,3.5275,3.5306,3.5337,3.5385,3.541,3.5446,3.5501,3.5545,3.5555,3.5596,3.5626,3.5616,3.5637,3.5633,3.5636,3.5523,3.5505,3.5644,3.5644,3.5644,3.5644,3.5644,3.5644,3.5244,3.5315,3.5315,3.5395,3.5408,3.5462,3.5481,3.5505,3.5524,3.5587,3.5623,3.563,3.5648,3.5689,3.5727,3.5729,3.5743,3.5767,3.5764,3.5659,3.5644,3.563,3.5612,3.5772,3.5772,3.5873,3.5874,3.5874]},{"header":{"parameterUnit":"m.s-1","parameterCategory":1,"la1":30.2991,"la2":30.254,"lo1":-89.0895,"lo2":-89.0444,"dy":0.0017,"dx":0.0017,"nx":28,"ny":28,"refTime":"2024-06-07T09:00:00:Z","depth":0,"parameterNumber":3,"parameterNumberName":"V-component_of_WINDS"},"data":[0,0,0,0,0,0,0,0,0,0,0,0,0,0,0,0,0,0,0,0,0,0,0,0,0,0,0,0,0,0,0,0,0,0,0,0,0,0,0,0,0,0,0,0,0,0,0,0,0,0,0,0,0,0,0,0,0,0,4.1891,4.1892,0,4.2017,4.2019,4.202,4.1983,4.1981,4.1978,4.1976,4.2102,4.2107,4.2113,0,0,0,0,0,0,0,0,0,0,0,0,0,4.1611,4.1616,4.189,4.1892,4.1894,4.2017,4.2019,4.202,4.1984,4.1981,4.1977,4.1974,4.21,4.2106,4.2113,0,0,0,0,0,0,0,0,0,0,0,0,0,4.1734,4.1618,4.189,4.189,4.1891,4.2017,4.2019,4.2021,4.1984,4.1981,4.1977,4.1973,4.2097,4.2106,4.2114,4.2246,0,0,4.2141,4.2145,0,0,0,0,0,0,0,0,4.1727,4.1744,4.1889,4.189,4.1892,4.1981,4.1966,4.2096,4.1985,4.1949,4.1976,4.1971,4.2064,4.2075,4.2108,4.2252,4.2257,4.2142,4.2147,4.2151,4.2153,0,0,0,0,0,0,0,4.1719,4.1739,4.194,4.1891,4.1893,4.1882,4.1895,4.1991,4.2027,4.1952,4.195,4.1965,4.2064,4.2099,4.211,4.2259,4.2141,4.2149,4.2154,4.2158,4.2514,4.2518,0,0,0,0,0,0,4.171,4.1732,4.1936,4.1944,4.1799,4.189,4.1905,4.1956,4.2026,4.2033,4.1968,4.1963,4.2086,4.21,4.2115,4.2272,4.215,4.2159,4.2164,4.251,4.2515,4.252,0,0,0,0,0,0,4.1704,4.1728,4.1931,4.1838,4.1863,4.1899,4.1957,4.1961,4.1996,4.2038,4.2044,4.1998,4.2084,4.2102,4.2213,4.2276,4.2163,4.217,4.2505,4.2512,4.2517,4.2588,0,0,0,0,0,0,4.1696,4.1726,4.1778,4.1839,4.1868,4.203,4.1961,4.1966,4.2011,4.2005,4.2068,4.2074,4.2082,4.22,4.2222,4.2285,4.2177,4.2499,4.2508,4.2515,4.258,4.2596,4.261,0,0,0,0,0,4.1686,4.1793,4.1781,4.1806,4.1934,4.2034,4.205,4.2058,4.2016,4.2068,4.2095,4.2072,4.2265,4.2212,4.2236,4.2303,4.2496,4.2505,4.2515,4.2574,4.2593,4.2609,0,0,0,0,0,0,4.1738,4.1801,4.1789,4.1919,4.1971,4.2027,4.2093,4.2079,4.2143,4.2135,4.2141,4.2156,4.2269,4.2297,4.2237,4.2432,4.2374,4.2389,4.2411,4.2429,4.2443,4.2435,4.2184,0,0,0,0,0,4.1765,4.1843,4.1892,4.2002,4.2029,4.2057,4.21,4.2102,4.2156,4.2178,4.2213,4.2265,4.2337,4.2384,4.2453,4.2583,4.2595,4.2641,4.2656,4.2667,4.268,4.2749,4.2769,4.2551,4.2551,4.2551,0,0,4.1821,4.1865,4.1913,4.2014,4.2055,4.2133,4.2076,4.2161,4.2219,4.219,4.2298,4.2325,4.2382,4.2503,4.2558,4.253,4.2743,4.268,4.2689,4.2695,4.2761,4.2782,4.28,4.2558,4.2557,4.2556,0,0,4.1963,4.2005,4.21,4.2142,4.2204,4.2221,4.2244,4.2302,4.2319,4.2426,4.2406,4.2473,4.2598,4.2639,4.2677,4.2831,4.2812,4.2853,4.293,4.2997,4.3014,4.3029,4.3083,4.3102,4.2866,4.2866,4.2866,0,4.2025,4.2144,4.215,4.2238,4.2281,4.2259,4.2354,4.2394,4.2475,4.2505,4.2472,4.2627,4.2664,4.2793,4.2831,4.2862,4.2887,4.2847,4.3011,4.3026,4.3041,4.3092,4.3112,4.287,4.287,4.2869,4.2869,0,4.2215,4.2297,4.2366,4.2446,4.2497,4.2588,4.2607,4.2657,4.2653,4.2673,4.2781,4.2825,4.2901,4.2931,4.2929,4.306,4.304,4.3009,4.2951,4.3066,4.3114,4.3134,4.2877,4.2875,4.2874,4.2873,0,0,4.2396,4.2477,4.2502,4.2537,4.2603,4.2665,4.2753,4.2829,4.2871,4.2927,4.3,4.3104,4.3076,4.3118,4.3119,4.3178,4.3295,4.3139,4.3141,4.3166,4.344,4.3463,4.3486,4.3282,4.3286,4.3289,4.3435,0,4.2543,4.27,4.2708,4.285,4.2924,4.2903,4.2979,4.3026,4.3046,4.3111,4.3131,4.3205,4.3162,4.3188,4.3245,4.3269,4.335,4.3258,4.3349,4.3352,4.3335,4.3511,4.3536,4.3672,4.3454,4.3457,4.3459,0,4.2737,4.2799,4.2949,4.3002,4.3033,4.3102,4.317,4.3233,4.3285,4.3295,4.3341,4.3333,4.342,4.3358,4.3477,4.3415,4.3451,4.3468,4.3474,4.3483,4.3413,4.3525,4.3715,4.3736,4.3489,4.3487,4.3485,0,4.2853,4.2974,4.3078,4.3109,4.3174,4.3222,4.3251,4.3299,4.3343,4.3402,4.343,4.3498,4.3535,4.3586,4.3596,4.355,4.3715,4.3653,4.3724,4.3724,4.376,4.3758,4.396,4.3784,4.3784,4.3783,4.3783,0,4.3017,4.3109,4.3131,4.3196,4.3297,4.3303,4.3403,4.3428,4.347,4.3537,4.3522,4.3585,4.3593,4.3658,4.3665,4.3762,4.3778,4.3787,4.3788,4.3789,4.3788,4.3814,4.3805,4.3789,4.3788,4.3786,4.3786,0,4.3164,4.3183,4.3295,4.3347,4.3362,4.3434,4.3477,4.3537,4.3554,4.3639,4.3659,4.3686,4.376,4.3775,4.3862,4.3867,4.3982,4.3974,4.3965,4.3964,4.4034,4.4027,4.4259,4.4289,4.4094,4.4096,4.4097,0,4.3268,4.3338,4.3397,4.3441,4.3472,4.3544,4.3589,4.3596,4.3643,4.3705,4.3758,4.3831,4.389,4.4009,4.4035,4.4101,4.4094,4.4171,4.4104,4.4102,4.4094,4.409,4.4096,4.4184,4.4186,4.4188,4.4189,0,4.3449,4.3454,4.352,4.3589,4.3642,4.3696,4.3748,4.3784,4.3798,4.385,4.3927,4.3973,4.4062,4.4134,4.42,4.4226,4.421,4.421,4.4229,4.4231,4.4223,4.4227,4.4,4.4205,4.4203,4.4202,4.4201,4.42,4.3577,4.3638,4.3688,4.3761,4.38,4.3848,4.3907,4.3931,4.3995,4.4069,4.4069,4.4152,4.4199,4.4286,4.4317,4.438,4.4356,4.4384,4.4392,4.4399,4.4405,4.4213,4.4392,4.4392,4.4391,4.4391,4.4391,0,4.3757,4.3788,4.3855,4.3927,4.3984,4.3963,4.4018,4.4066,4.414,4.4186,4.4244,4.433,4.4399,4.443,4.4497,4.4542,4.4536,4.4559,4.4556,4.4562,4.4424,4.44,4.4563,4.4563,4.4563,4.4563,4.4563,4.4563,4.3858,4.3959,4.397,4.4089,4.4118,4.4201,4.4234,4.4276,4.4313,4.4411,4.4468,4.4488,4.4526,4.4596,4.4657,4.4664,4.4689,4.4716,4.472,4.459,4.4572,4.4556,4.4533,4.4722,4.4722,4.4853,4.4854,4.4855]}]]